H1 CPF 2 NER 2022 12 26 9 360 01 glonass134 H2 1407501 9134 40315 2022 12 26 0 0 0 2022 12 29 23 45 0 900 1 1 0 0 0 1 H9 10 0 59939 0.00000 0 -20220270.495 8501766.364 13096907.261 10 0 59939 900.00000 0 -18856454.402 7382461.546 15572116.231 10 0 59939 1800.00000 0 -17375339.654 5964980.953 17746162.421 10 0 59939 2700.00000 0 -15837684.832 4259218.592 19576903.319 10 0 59939 3600.00000 0 -14302986.111 2287326.332 21028785.639 10 0 59939 4500.00000 0 -12827020.713 83066.590 22073534.138 10 0 59939 5400.00000 0 -11459561.560 -2309320.841 22690705.204 10 0 59939 6300.00000 0 -10242357.780 -4836693.631 22868094.396 10 0 59939 7200.00000 0 -9207465.072 -7438960.834 22601989.396 10 0 59939 8100.00000 0 -8375995.850 -10051337.567 21897262.426 10 0 59939 9000.00000 0 -7757342.029 -12606809.261 20767298.797 10 0 59939 9900.00000 0 -7348904.062 -15038704.801 19233761.160 10 0 59939 10800.00000 0 -7136338.826 -17283272.820 17326192.017 10 0 59939 11700.00000 0 -7094317.289 -19282154.214 15081460.172 10 0 59939 12600.00000 0 -7187761.324 -20984647.449 12543060.084 10 0 59939 13500.00000 0 -7373508.356 -22349671.094 9760276.242 10 0 59939 14400.00000 0 -7602333.973 -23347340.085 6787227.885 10 0 59939 15300.00000 0 -7821246.645 -23960088.020 3681812.364 10 0 59939 16200.00000 0 -7975956.476 -24183286.834 504568.085 10 0 59939 17100.00000 0 -8013411.750 -24025336.578 -2682519.854 10 0 59939 18000.00000 0 -7884293.580 -23507220.734 -5817246.439 10 0 59939 18900.00000 0 -7545360.447 -22661545.797 -8838420.070 10 0 59939 19800.00000 0 -6961540.598 -21531106.136 -11687076.355 10 0 59939 20700.00000 0 -6107681.262 -20167035.928 -14307646.450 10 0 59939 21600.00000 0 -4969878.527 -18626627.756 -16649055.402 10 0 59939 22500.00000 0 -3546330.028 -16970911.737 -18665727.617 10 0 59939 23400.00000 0 -1847673.505 -15262099.104 -20318478.880 10 0 59939 24300.00000 0 103203.496 -13560999.435 -21575277.301 10 0 59939 25200.00000 0 2271874.717 -11924521.288 -22411858.649 10 0 59939 26100.00000 0 4613576.690 -10403361.668 -22812184.879 10 0 59939 27000.00000 0 7074849.702 -9039980.998 -22768738.251 10 0 59939 27900.00000 0 9595548.877 -7866947.380 -22282646.830 10 0 59939 28800.00000 0 12111140.826 -6905717.798 -21363640.627 10 0 59939 29700.00000 0 14555189.832 -6165904.950 -20029840.934 10 0 59939 30600.00000 0 16861930.184 -5645057.715 -18307388.465 10 0 59939 31500.00000 0 18968818.060 -5328961.671 -16229918.915 10 0 59939 32400.00000 0 20818957.850 -5192444.258 -13837897.119 10 0 59939 33300.00000 0 22363303.395 -5200648.413 -11177823.456 10 0 59939 34200.00000 0 23562544.208 -5310719.201 -8301328.320 10 0 59939 35100.00000 0 24388600.115 -5473831.149 -5264172.264 10 0 59939 36000.00000 0 24825664.041 -5637470.211 -2125170.929 10 0 59939 36900.00000 0 24870751.296 -5747874.112 1054934.855 10 0 59939 37800.00000 0 24533734.111 -5752528.575 4214642.680 10 0 59939 38700.00000 0 23836861.175 -5602614.886 7292864.356 10 0 59939 39600.00000 0 22813782.988 -5255306.513 10230092.172 10 0 59939 40500.00000 0 21508123.917 -4675818.786 12969534.326 10 0 59939 41400.00000 0 19971660.230 -3839125.861 15458198.888 10 0 59939 42300.00000 0 18262179.356 -2731272.843 17647906.518 10 0 59939 43200.00000 0 16441108.484 -1350227.443 19496213.629 10 0 59939 44100.00000 0 14571009.963 293765.790 20967229.083 10 0 59939 45000.00000 0 12713046.451 2178345.250 22032309.336 10 0 59939 45900.00000 0 10924520.022 4269701.882 22670618.931 10 0 59939 46800.00000 0 9256586.643 6523733.507 22869545.395 10 0 59939 47700.00000 0 7752240.539 8887638.766 22624959.883 10 0 59939 48600.00000 0 6444652.190 11301887.354 21941317.513 10 0 59939 49500.00000 0 5355929.450 13702487.295 20831593.918 10 0 59939 50400.00000 0 4496354.236 16023457.078 19317057.427 10 0 59939 51300.00000 0 3864127.579 18199401.272 17426879.322 10 0 59939 52200.00000 0 3445634.845 20168083.097 15197587.655 10 0 59939 53100.00000 0 3216221.058 21872886.469 12672373.457 10 0 59939 54000.00000 0 3141444.521 23265063.933 9900261.308 10 0 59939 54900.00000 0 3178756.279 24305675.005 6935159.410 10 0 59939 55800.00000 0 3279534.405 24967131.918 3834807.377 10 0 59939 56700.00000 0 3391386.229 25234286.051 659642.528 10 0 59939 57600.00000 0 3460619.618 25105007.684 -2528392.276 10 0 59939 58500.00000 0 3434776.594 24590233.402 -5667074.410 10 0 59939 59400.00000 0 3265119.465 23713478.472 -8695135.098 10 0 59939 60300.00000 0 2908961.471 22509834.733 -11553474.724 10 0 59939 61200.00000 0 2331740.641 21024496.895 -14186333.932 10 0 59939 62100.00000 0 1508746.727 19310880.609 -16542395.886 10 0 59939 63000.00000 0 426426.290 17428413.139 -18575796.716 10 0 59939 63900.00000 0 -916790.448 15440091.450 -20247023.466 10 0 59939 64800.00000 0 -2510176.586 13409911.987 -21523681.743 10 0 59939 65700.00000 0 -4330922.689 11400281.370 -22381118.386 10 0 59939 66600.00000 0 -6344868.704 9469517.378 -22802887.798 10 0 59939 67500.00000 0 -8507722.351 7669544.905 -22781054.132 10 0 59939 68400.00000 0 -10766712.182 6043882.567 -22316325.011 10 0 59939 69300.00000 0 -13062605.403 4626002.693 -21418015.830 10 0 59939 70200.00000 0 -15332005.677 3438131.082 -20103847.088 10 0 59939 71100.00000 0 -17509834.867 2490533.989 -18399580.198 10 0 59939 72000.00000 0 -19531895.376 1781319.299 -16338500.244 10 0 59939 72900.00000 0 -21337406.958 1296757.094 -13960756.767 10 0 59939 73800.00000 0 -22871413.373 1012103.382 -11312576.081 10 0 59939 74700.00000 0 -24086959.884 892889.967 -8445360.848 10 0 59939 75600.00000 0 -24946952.500 896624.340 -5414694.427 10 0 59939 76500.00000 0 -25425623.165 974826.812 -2279269.031 10 0 59939 77400.00000 0 -25509541.396 1075318.502 900241.961 10 0 59939 78300.00000 0 -25198131.677 1144663.721 4062346.452 10 0 59939 79200.00000 0 -24503676.169 1130664.252 7145909.340 10 0 59939 80100.00000 0 -23450803.329 984801.109 10091319.718 10 0 59939 81000.00000 0 -22075484.022 664521.717 12841628.293 10 0 59939 81900.00000 0 -20423576.671 135276.860 15343634.310 10 0 59939 82800.00000 0 -18548981.333 -627777.883 17548902.185 10 0 59939 83700.00000 0 -16511478.408 -1638487.870 19414689.406 10 0 59939 84600.00000 0 -14374340.417 -2898867.355 20904768.809 10 0 59939 85500.00000 0 -12201814.679 -4398765.904 21990129.961 10 0 59940 0.00000 0 -10056580.103 -6116049.126 22649546.470 10 0 59940 900.00000 0 -7997281.262 -8017289.673 22869998.421 10 0 59940 1800.00000 0 -6076244.147 -10058940.194 22646940.380 10 0 59940 2700.00000 0 -4337464.037 -12188945.415 21984409.950 10 0 59940 3600.00000 0 -2814951.981 -14348726.788 20894972.272 10 0 59940 4500.00000 0 -1531507.927 -16475460.300 19399500.208 10 0 59940 5400.00000 0 -497972.543 -18504554.241 17526792.370 10 0 59940 6300.00000 0 287010.151 -20372224.694 15313034.351 10 0 59940 7200.00000 0 836708.362 -22018061.392 12801111.836 10 0 59940 8100.00000 0 1175507.501 -23387476.164 10039787.401 10 0 59940 9000.00000 0 1337637.519 -24433930.182 7082756.004 10 0 59940 9900.00000 0 1365476.212 -25120844.813 3987597.229 10 0 59940 10800.00000 0 1307500.793 -25423113.804 814644.987 10 0 59940 11700.00000 0 1215975.571 -25328151.196 -2374202.423 10 0 59940 12600.00000 0 1144475.473 -24836429.055 -5516707.103 10 0 59940 13500.00000 0 1145352.589 -23961481.143 -8551525.426 10 0 59940 14400.00000 0 1267255.710 -22729371.705 -11419424.864 10 0 59940 15300.00000 0 1552810.533 -21177651.836 -14064457.827 10 0 59940 16200.00000 0 2036561.247 -19353848.126 -16435067.793 10 0 59940 17100.00000 0 2743262.655 -17313548.348 -18485104.687 10 0 59940 18000.00000 0 3686596.534 -15118166.305 -20174728.672 10 0 59940 18900.00000 0 4868367.320 -12832481.253 -21471184.442 10 0 59940 19800.00000 0 6278211.379 -10522056.468 -22349431.179 10 0 59940 20700.00000 0 7893831.796 -8250646.107 -22792616.645 10 0 59940 21600.00000 0 9681748.251 -6077699.132 -22792387.445 10 0 59940 22500.00000 0 11598529.671 -4056064.215 -22349030.966 10 0 59940 23400.00000 0 13592457.063 -2229990.339 -21471447.881 10 0 59940 24300.00000 0 15605546.204 -633504.629 -20176957.485 10 0 59940 25200.00000 0 17575845.097 710767.353 -18490941.180 10 0 59940 26100.00000 0 19439910.030 1792292.502 -16446332.423 10 0 59940 27000.00000 0 21135357.088 2612806.474 -14082964.117 10 0 59940 27900.00000 0 22603383.304 3185971.180 -11446786.807 10 0 59940 28800.00000 0 23791153.160 3536530.601 -8588973.357 10 0 59940 29700.00000 0 24653952.158 3699002.735 -5564927.506 10 0 59940 30600.00000 0 25157018.984 3715964.472 -2433215.304 10 0 59940 31500.00000 0 25276981.237 3636002.601 745560.283 10 0 59940 32400.00000 0 25002836.089 3511417.744 3909920.582 10 0 59940 33300.00000 0 24336436.027 3395777.834 6998686.709 10 0 59940 34200.00000 0 23292460.056 3341423.667 9952147.633 10 0 59940 35100.00000 0 21897871.784 3397030.859 12713199.484 10 0 59940 36000.00000 0 20190886.660 3605330.081 15228435.378 10 0 59940 36900.00000 0 18219490.601 4001080.804 17449165.893 10 0 59940 37800.00000 0 16039570.450 4609383.520 19332351.707 10 0 59940 38700.00000 0 13712732.360 5444401.562 20841431.393 10 0 59940 39600.00000 0 11303897.073 6508546.959 21947029.035 10 0 59940 40500.00000 0 8878770.082 7792165.995 22627528.397 10 0 59940 41400.00000 0 6501290.004 9273739.743 22869502.473 10 0 59940 42300.00000 0 4231159.700 10920593.716 22667989.530 10 0 59940 43200.00000 0 2121561.626 12690089.871 22026609.299 10 0 59940 44100.00000 0 217151.747 14531254.046 20957515.604 10 0 59940 45000.00000 0 -1447584.501 16386773.489 19481184.534 10 0 59940 45900.00000 0 -2849545.421 18195283.220 17626040.294 10 0 59940 46800.00000 0 -3977744.071 19893847.163 15427923.926 10 0 59940 47700.00000 0 -4833525.629 21420530.893 12929413.375 10 0 59940 48600.00000 0 -5430261.175 22716958.089 10179006.605 10 0 59940 49500.00000 0 -5792530.142 23730742.521 7230182.571 10 0 59940 50400.00000 0 -5954825.611 24417691.792 4140357.987 10 0 59940 51300.00000 0 -5959837.406 24743688.110 969760.475 10 0 59940 52200.00000 0 -5856386.502 24686164.728 -2219759.102 10 0 59940 53100.00000 0 -5697099.627 24235113.662 -5365950.355 10 0 59940 54000.00000 0 -5535924.646 23393580.494 -8407397.460 10 0 59940 54900.00000 0 -5425594.405 22177624.139 -11284737.438 10 0 59940 55800.00000 0 -5415149.036 20615742.747 -13941836.681 10 0 59940 56700.00000 0 -5547624.183 18747790.049 -16326900.935 10 0 59940 57600.00000 0 -5858005.173 16623428.433 -18393495.575 10 0 59940 58500.00000 0 -6371535.312 14300185.010 -20101455.263 10 0 59940 59400.00000 0 -7102450.885 11841193.620 -21417664.885 10 0 59940 60300.00000 0 -8053196.664 9312718.758 -22316696.786 10 0 59940 61200.00000 0 -9214154.824 6781566.183 -22781292.624 10 0 59940 62100.00000 0 -10563898.028 4312489.010 -22802681.687 10 0 59940 63000.00000 0 -12069955.126 1965697.477 -22380731.012 10 0 59940 63900.00000 0 -13690056.175 -205424.461 -21523926.062 10 0 59940 64800.00000 0 -15373803.540 -2156302.083 -20249184.043 10 0 59940 65700.00000 0 -17064698.237 -3852771.956 -18581505.065 10 0 59940 66600.00000 0 -18702436.082 -5272238.942 -16553469.321 10 0 59940 67500.00000 0 -20225377.469 -6404342.973 -14204591.111 10 0 59940 68400.00000 0 -21573087.734 -7251110.925 -11580543.006 10 0 59940 69300.00000 0 -22688842.478 -7826590.243 -8732265.670 10 0 59940 70200.00000 0 -23521994.099 -8155982.407 -5714980.696 10 0 59940 71100.00000 0 -24030101.736 -8274314.831 -2587125.363 10 0 59940 72000.00000 0 -24180736.812 -8224708.506 590770.463 10 0 59940 72900.00000 0 -23952889.908 -8056315.224 3757244.256 10 0 59940 73800.00000 0 -23337921.122 -7822011.428 6851076.105 10 0 59940 74700.00000 0 -22340014.878 -7575945.539 9812457.603 10 0 59940 75600.00000 0 -20976120.370 -7371041.366 12584132.986 10 0 59940 76500.00000 0 -19275379.820 -7256561.842 15112491.788 10 0 59940 77400.00000 0 -17278067.576 -7275834.743 17348593.082 10 0 59940 78300.00000 0 -15034082.875 -7464235.364 19249102.752 10 0 59940 79200.00000 0 -12601057.253 -7847510.679 20777126.733 10 0 59940 80100.00000 0 -10042153.275 -8440515.601 21902924.790 10 0 59940 81000.00000 0 -7423643.865 -9246415.265 22604491.478 10 0 59940 81900.00000 0 -4812370.606 -10256388.302 22867992.993 10 0 59940 82800.00000 0 -2273184.711 -11449845.609 22688050.915 10 0 59940 83700.00000 0 133524.646 -12795157.957 22067866.370 10 0 59940 84600.00000 0 2354112.997 -14250864.714 21019180.736 10 0 59940 85500.00000 0 4343679.761 -15767315.699 19562071.875 10 0 59941 0.00000 0 6067700.564 -17288679.692 17724588.028 10 0 59941 900.00000 0 7503225.044 -18755238.042 15542223.345 10 0 59941 1800.00000 0 8639587.005 -20105866.255 13057245.968 10 0 59941 2700.00000 0 9478599.446 -21280602.385 10317886.836 10 0 59941 3600.00000 0 10034223.112 -22223191.662 7377406.328 10 0 59941 4500.00000 0 10331722.994 -22883499.758 4293055.623 10 0 59941 5400.00000 0 10406348.194 -23219691.025 1124953.335 10 0 59941 6300.00000 0 10301591.462 -23200077.582 -2065099.797 10 0 59941 7200.00000 0 10067103.177 -22804558.900 -5214843.524 10 0 59941 8100.00000 0 9756349.834 -22025588.994 -8262792.328 10 0 59941 9000.00000 0 9424118.403 -20868628.664 -11149455.144 10 0 59941 9900.00000 0 9123974.706 -19352062.580 -13818514.536 10 0 59941 10800.00000 0 8905785.935 -17506584.239 -16217940.488 10 0 59941 11700.00000 0 8813414.413 -15374074.829 -18301015.565 10 0 59941 12600.00000 0 8882681.971 -13006023.918 -20027250.370 10 0 59941 13500.00000 0 9139692.179 -10461559.298 -21363171.087 10 0 59941 14400.00000 0 9599581.839 -7805169.761 -22282963.971 10 0 59941 15300.00000 0 10265754.289 -5104217.214 -22768964.939 10 0 59941 16200.00000 0 11129626.158 -2426342.826 -22811985.942 10 0 59941 17100.00000 0 12170897.147 163124.402 -22411473.307 10 0 59941 18000.00000 0 13358330.170 2603648.960 -21575496.603 10 0 59941 18900.00000 0 14651007.705 4841757.873 -20320569.989 10 0 59941 19800.00000 0 16000010.422 6833004.803 -18671311.076 10 0 59941 20700.00000 0 17350446.665 8543549.718 -16659945.341 10 0 59941 21600.00000 0 18643747.142 9951291.179 -14325666.796 10 0 59941 22500.00000 0 19820128.500 11046507.103 -11713868.099 10 0 59941 23400.00000 0 20821122.775 11831980.241 -8875255.541 10 0 59941 24300.00000 0 21592067.406 12322606.112 -5864866.161 10 0 59941 25200.00000 0 22084452.412 12544502.281 -2741005.854 10 0 59941 26100.00000 0 22258027.473 12533658.276 435871.351 10 0 59941 27000.00000 0 22082581.773 12334184.209 3604321.868 10 0 59941 27900.00000 0 21539323.022 11996232.313 6703087.536 10 0 59941 28800.00000 0 20621798.611 11573678.879 9672265.237 10 0 59941 29700.00000 0 19336320.624 11121663.613 12454449.821 10 0 59941 30600.00000 0 17701876.641 10694089.106 14995829.542 10 0 59941 31500.00000 0 15749529.291 10341184.598 17247214.022 10 0 59941 32400.00000 0 13521328.213 10107235.510 19164976.152 10 0 59941 33300.00000 0 11068777.848 10028573.445 20711890.748 10 0 59941 34200.00000 0 8450922.694 10131910.779 21857854.481 10 0 59941 35100.00000 0 5732127.142 10433090.005 22580473.585 10 0 59941 36000.00000 0 2979639.654 10936301.159 22865507.981 10 0 59941 36900.00000 0 261040.181 11633801.613 22707162.675 10 0 59941 37800.00000 0 -2358325.165 12506151.969 22108219.843 10 0 59941 38700.00000 0 -4817817.164 13522960.517 21080007.605 10 0 59941 39600.00000 0 -7063782.286 14644107.475 19642204.299 10 0 59941 40500.00000 0 -9051542.780 15821400.033 17822480.097 10 0 59941 41400.00000 0 -10747014.895 17000590.721 15655980.795 10 0 59941 42300.00000 0 -12127886.946 18123675.635 13184661.979 10 0 59941 43200.00000 0 -13184307.108 19131376.565 10456484.892 10 0 59941 44100.00000 0 -13919051.163 19965702.281 7524488.543 10 0 59941 45000.00000 0 -14347162.366 20572480.044 4445755.703 10 0 59941 45900.00000 0 -14495078.273 20903748.851 1280293.116 10 0 59941 46800.00000 0 -14399281.551 20919911.169 -1910151.427 10 0 59941 47700.00000 0 -14104532.522 20591549.829 -5063310.563 10 0 59941 48600.00000 0 -13661759.616 19900830.924 -8117631.710 10 0 59941 49500.00000 0 -13125698.937 18842431.276 -11013498.176 10 0 59941 50400.00000 0 -12552385.107 17423949.725 -13694410.949 10 0 59941 51300.00000 0 -11996602.026 15665783.844 -16108106.254 10 0 59941 52200.00000 0 -11509403.659 13600476.879 -18207585.554 10 0 59941 53100.00000 0 -11135811.633 11271562.666 -19952036.786 10 0 59941 54000.00000 0 -10912788.274 8731957.705 -21307628.508 10 0 59941 54900.00000 0 -10867571.371 6041968.733 -22248161.637 10 0 59941 55800.00000 0 -11016440.895 3267000.266 -22755566.763 10 0 59941 56700.00000 0 -11363968.979 475058.677 -22820238.579 10 0 59941 57600.00000 0 -11902783.564 -2265842.639 -22441202.414 10 0 59941 58500.00000 0 -12613854.089 -4890268.911 -21626111.285 10 0 59941 59400.00000 0 -13467285.525 -7337833.535 -20391075.264 10 0 59941 60300.00000 0 -14423585.725 -9555450.200 -18760328.054 10 0 59941 61200.00000 0 -15435351.438 -11499275.720 -16765738.660 10 0 59941 62100.00000 0 -16449301.080 -13136265.260 -14446178.762 10 0 59941 63000.00000 0 -17408568.317 -14445277.983 -11846758.836 10 0 59941 63900.00000 0 -18255159.974 -15417689.903 -9017948.358 10 0 59941 64800.00000 0 -18932475.373 -16057491.309 -6014597.273 10 0 59941 65700.00000 0 -19387781.994 -16380867.327 -2894877.495 10 0 59941 66600.00000 0 -19574544.406 -16415281.330 280835.413 10 0 59941 67500.00000 0 -19454509.759 -16198101.315 3451119.466 10 0 59941 68400.00000 0 -18999463.254 -15774827.838 6554680.900 10 0 59941 69300.00000 0 -18192580.723 -15196998.301 9531524.525 10 0 59941 70200.00000 0 -17029321.999 -14519855.371 12324098.377 10 0 59941 71100.00000 0 -15517827.500 -13799876.828 14878391.875 10 0 59941 72000.00000 0 -13678800.780 -13092269.583 17144967.449 10 0 59941 72900.00000 0 -11544880.650 -12448532.024 19079906.971 10 0 59941 73800.00000 0 -9159527.167 -11914185.991 20645655.772 10 0 59941 74700.00000 0 -6575465.661 -11526772.802 21811748.641 10 0 59941 75600.00000 0 -3852750.913 -11314197.097 22555404.266 10 0 59941 76500.00000 0 -1056529.180 -11293488.156 22861976.606 10 0 59941 77400.00000 0 1745411.517 -11470031.471 22725253.961 10 0 59941 78300.00000 0 4485203.523 -11837304.147 22147599.006 10 0 59941 79200.00000 0 7097469.585 -12377127.072 21139925.665 10 0 59941 80100.00000 0 9521795.246 -13060425.370 19721511.477 10 0 59941 81000.00000 0 11705001.442 -13848467.353 17919647.123 10 0 59941 81900.00000 0 13603122.702 -14694531.897 15769127.809 10 0 59941 82800.00000 0 15183007.816 -15545935.582 13311594.523 10 0 59941 83700.00000 0 16423475.206 -16346335.166 10594736.338 10 0 59941 84600.00000 0 17315973.554 -17038208.421 7671368.142 10 0 59941 85500.00000 0 17864718.883 -17565407.989 4598401.347 10 0 59942 0.00000 0 18086301.626 -17875678.912 1435728.002 10 0 59942 900.00000 0 18008780.086 -17923031.530 -1754960.796 10 0 59942 1800.00000 0 17670298.597 -17669866.619 -4911393.412 10 0 59942 2700.00000 0 17117290.184 -17088760.888 -7971953.202 10 0 59942 3600.00000 0 16402340.891 -16163834.442 -10876900.626 10 0 59942 4500.00000 0 15581808.296 -14891640.598 -13569557.593 10 0 59942 5400.00000 0 14713297.166 -13281538.915 -15997428.741 10 0 59942 6300.00000 0 13853101.228 -11355534.811 -18113236.244 10 0 59942 7200.00000 0 13053721.173 -9147592.293 -19875846.807 10 0 59942 8100.00000 0 12361565.221 -6702448.952 -21251072.382 10 0 59942 9000.00000 0 11814930.125 -4073983.576 -22212329.134 10 0 59942 9900.00000 0 11442347.897 -1323205.675 -22741142.482 10 0 59942 10800.00000 0 11261367.299 1484048.275 -22827489.589 10 0 59942 11700.00000 0 11277820.163 4279615.131 -22469974.107 10 0 59942 12600.00000 0 11485601.715 6995597.473 -21675831.468 10 0 59942 13500.00000 0 11866972.119 9566940.555 -20460766.300 10 0 59942 14400.00000 0 12393364.537 11933887.523 -18848626.760 10 0 59942 15300.00000 0 13026663.781 14044212.254 -16870923.500 10 0 59942 16200.00000 0 13720900.232 15855138.985 -14566203.769 10 0 59942 17100.00000 0 14424286.620 17334871.311 -11979293.553 10 0 59942 18000.00000 0 15081511.389 18463669.477 -9160423.019 10 0 59942 18900.00000 0 15636192.034 19234433.822 -6164252.363 10 0 59942 19800.00000 0 16033385.570 19652772.658 -3048816.746 10 0 59942 20700.00000 0 16222051.197 19736553.994 125589.569 10 0 59942 21600.00000 0 16157362.527 19514961.733 3297569.007 10 0 59942 22500.00000 0 15802773.075 19027097.144 6405794.923 10 0 59942 23400.00000 0 15131749.072 18320184.823 9390182.606 10 0 59942 24300.00000 0 14129097.342 17447458.441 12193035.617 10 0 59942 25200.00000 0 12791832.590 16465814.417 14760146.631 10 0 59942 26100.00000 0 11129547.286 15433331.019 17041832.699 10 0 59942 27000.00000 0 9164267.544 14406755.735 18993886.228 10 0 59942 27900.00000 0 6929799.239 13439065.029 20578424.327 10 0 59942 28800.00000 0 4470589.443 12577197.642 21764620.889 10 0 59942 29700.00000 0 1840147.915 11860055.645 22529307.735 10 0 59942 30600.00000 0 -900908.622 11316856.580 22857433.200 10 0 59942 31500.00000 0 -3687110.902 10965905.983 22742368.836 10 0 59942 32400.00000 0 -6450599.343 10813842.417 22186057.367 10 0 59942 33300.00000 0 -9123694.045 10855387.930 21198997.620 10 0 59942 34200.00000 0 -11641467.410 11073616.048 19800064.972 10 0 59942 35100.00000 0 -13944213.434 11440727.839 18016168.802 10 0 59942 36000.00000 0 -15979711.187 11919305.244 15881751.513 10 0 59942 36900.00000 0 -17705187.672 12463990.439 13438136.945 10 0 59942 37800.00000 0 -19088897.257 13023521.506 10732739.208 10 0 59942 38700.00000 0 -20111250.393 13543038.883 7818146.150 10 0 59942 39600.00000 0 -20765442.957 13966564.837 4751094.836 10 0 59942 40500.00000 0 -21057558.724 14239549.942 1591359.089 10 0 59942 41400.00000 0 -21006139.914 14311377.041 -1599428.428 10 0 59942 42300.00000 0 -20641243.759 14137714.378 -4758995.161 10 0 59942 43200.00000 0 -20003025.386 13682615.699 -7825663.049 10 0 59942 44100.00000 0 -19139908.002 12920275.832 -10739572.195 10 0 59942 45000.00000 0 -18106419.367 11836365.160 -13443867.714 10 0 59942 45900.00000 0 -16960788.015 10428884.658 -15885824.696 10 0 59942 46800.00000 0 -15762402.925 8708504.068 -18017887.754 10 0 59942 47700.00000 0 -14569245.928 6698368.275 -19798603.741 10 0 59942 48600.00000 0 -13435406.842 4433379.908 -21193428.993 10 0 59942 49500.00000 0 -12408787.104 1958988.591 -22175395.515 10 0 59942 50400.00000 0 -11529088.996 -670461.660 -22725623.734 10 0 59942 51300.00000 0 -10826174.653 -3393757.026 -22833673.058 10 0 59942 52200.00000 0 -10318862.693 -6145125.266 -22497724.846 10 0 59942 53100.00000 0 -10014211.323 -8856736.989 -21724595.936 10 0 59942 54000.00000 0 -9907315.838 -11461292.711 -20529584.152 10 0 59942 54900.00000 0 -9981626.631 -13894588.549 -18936150.416 10 0 59942 55800.00000 0 -10209771.976 -16097954.817 -16975445.061 10 0 59942 56700.00000 0 -10554848.856 -18020467.701 -14685688.711 10 0 59942 57600.00000 0 -10972125.790 -19620844.026 -12111420.520 10 0 59942 58500.00000 0 -11411084.787 -20868942.470 -9302628.924 10 0 59942 59400.00000 0 -11817715.830 -21746811.218 -6313781.923 10 0 59942 60300.00000 0 -12136967.146 -22249240.811 -3202775.494 10 0 59942 61200.00000 0 -12315248.421 -22383801.312 -29820.207 10 0 59942 62100.00000 0 -12302882.267 -22170364.180 3143713.115 10 0 59942 63000.00000 0 -12056401.552 -21640130.228 6256467.266 10 0 59942 63900.00000 0 -11540596.819 -20834205.190 9248270.289 10 0 59942 64800.00000 0 -10730228.339 -19801782.746 12061283.494 10 0 59942 65700.00000 0 -9611331.145 -18598010.777 14641104.952 10 0 59942 66600.00000 0 -8182058.082 -17281629.353 16937808.355 10 0 59942 67500.00000 0 -6453024.706 -15912478.181 18906898.456 10 0 59942 68400.00000 0 -4447140.053 -14548976.457 20510165.716 10 0 59942 69300.00000 0 -2198928.355 -13245679.228 21716424.401 10 0 59942 70200.00000 0 246632.681 -12051011.305 22502120.378 10 0 59942 71100.00000 0 2835711.560 -11005272.668 22851796.912 10 0 59942 72000.00000 0 5507597.086 -10138998.432 22758408.992 10 0 59942 72900.00000 0 8196967.741 -9471742.192 22223479.204 10 0 59942 73800.00000 0 10836364.644 -9011334.299 21257090.738 10 0 59942 74700.00000 0 13358767.272 -8753647.333 19877715.926 10 0 59942 75600.00000 0 15700166.219 -8682879.989 18111881.639 10 0 59942 76500.00000 0 17802026.504 -8772348.982 15993675.929 10 0 59942 77400.00000 0 19613538.520 -8985757.073 13564103.607 10 0 59942 78300.00000 0 21093561.905 -9278884.837 10870301.588 10 0 59942 79200.00000 0 22212179.774 -9601635.344 7964628.106 10 0 59942 80100.00000 0 22951796.642 -9900345.214 4903642.983 10 0 59942 81000.00000 0 23307732.530 -10120263.434 1746998.949 10 0 59942 81900.00000 0 23288287.097 -10208091.435 -1443733.674 10 0 59942 82800.00000 0 22914270.356 -10114474.699 -4606284.520 10 0 59942 83700.00000 0 22218019.754 -9796337.841 -7678917.441 10 0 59942 84600.00000 0 21241945.658 -9218961.574 -10601655.330 10 0 59942 85500.00000 0 20036667.896 -8357711.117 -13317469.369 99